STARLINK-1700, 46549

Orbit data source: Space-Track

STARLINK-1700, 46549 is a payload satellite owned by SpaceX/Seattle (US) in LEO that was launched on Tue, 06 Oct 2020 UTC via an FALCON 9 launch vehicle from the Air Force Eastern Test Range (AFETR). Payload-class satellites include a variety of spacecraft equipped with specific instruments for various scientific and technological missions. These include communications satellites like Starlink; space stations such as the ISS; scientific satellites like the Hubble; Earth observation satellites from companies like Planet Labs, Umbra, and HawkEye 360; GPS; miniature CubeSats for education and research; and military/defense satellites.

Loading next visibility...
Identifier
46549, 2020-070T
Orbit
LEO
Country
Flag of USUS
Related business
Manufacturer
SpaceX/Seattle
Mission
Partially operational Commercial Communications
Bus & Motor
STARLINK, Unknown motor
Mass
260 kg wet, ~248 kg dry
Launch date (UTC)
2020-10-06 (5 years ago)
Launch vehicle
FALCON 9
Launch site
Air Force Eastern Test Range (AFETR)
Object type
Payload
Rocket body
Debris
Shape & HBR
Box + 1 Pan, 10.1 m
Radar Cross Section
13.562 m², Large (>1 m²)

Expand to show TLE details & history
Last TLE update: 3 hours ago

TLE from 3 hours ago
0 STARLINK-1700
1 46549U 20070T   25291.33336806  .00219426  00000-0  34032-2 0  9996
2 46549  53.0437  54.1754 0005065 217.5065  42.2420 15.52721112  5916
Epoch: 2025-10-18T08:00Z
TLE epoch observation values (Epoch: 2025-10-18T08:00:03.000Z)
Latitude
-52.01422°
Longitude
160.45374°
Altitude
424.261 km
Speed
7.658 km/s
True Right ascension
20h 30m 07s
True Declination
-51° 50' 21"
Sunlit
Object was in daylight at epoch
Visualization orbit readout
Latitude
Unknown
Longitude
Unknown
Altitude
Unknown
Speed
Unknown
Apparent Right ascension
Unknown
Apparent Declination
Unknown
Sunlit
N/A
Visualization observer readout
Local Sidereal Time
06:03:38
Azimuth
Unknown
Elevation
Unknown
Doppler factor
Unknown
Orbital elements
Apogee altitude
412.501 km
Perigee altitude
405.625 km
Semi-major axis
6,787.2 km
Eccentricity
0.00051
Inclination
53.0437°
RAAN
54.1754°
Arg. of periapsis
217.5065°
True anomaly
42.28104°
Mean anomaly
42.242°
Eccentric anomaly
42.26152°
Mean motion
3.88157 °/min
Orbital period
92.75 mins
BSTAR
0.0034032
Loading maneuver chart data...
Computing Atmospheric mass density...

Documentation

Showing up to 5 results
|